[[{"header":{"parameterUnit":"m.s-1","parameterCategory":1,"la1":30.2991,"la2":30.254,"lo1":-89.0895,"lo2":-89.0444,"dy":0.0017,"dx":0.0017,"nx":28,"ny":28,"refTime":"2025-12-04T09:00:00:Z","depth":0,"parameterNumber":2,"parameterNumberName":"U-component_of_WINDS"},"data":[0,0,0,0,0,0,0,0,0,0,0,0,0,0,0,0,0,0,0,0,0,0,0,0,0,0,0,0,0,0,0,0,0,0,0,0,0,0,0,0,0,0,0,0,0,0,0,0,0,0,0,0,0,0,0,0,0,0,-3.7384,-3.7384,0,-3.7346,-3.7346,-3.7345,-3.7191,-3.7187,-3.7184,-3.718,-3.7145,-3.7148,-3.715,0,0,0,0,0,0,0,0,0,0,0,0,0,-3.7327,-3.7329,-3.7384,-3.7384,-3.7383,-3.7346,-3.7346,-3.7345,-3.7191,-3.7187,-3.7183,-3.7179,-3.7145,-3.7147,-3.715,0,0,0,0,0,0,0,0,0,0,0,0,0,-3.7327,-3.733,-3.7384,-3.7302,-3.7294,-3.7346,-3.7346,-3.7345,-3.7192,-3.7187,-3.7182,-3.7177,-3.7144,-3.7147,-3.7151,-3.728,0,0,-3.7162,-3.7163,0,0,0,0,0,0,0,0,-3.7327,-3.7329,-3.7315,-3.7308,-3.7299,-3.7268,-3.7312,-3.7323,-3.7194,-3.7231,-3.718,-3.7174,-3.7191,-3.719,-3.7195,-3.7279,-3.7277,-3.7162,-3.7164,-3.7166,-3.7167,0,0,0,0,0,0,0,-3.7328,-3.733,-3.7369,-3.7315,-3.7305,-3.7268,-3.7262,-3.7314,-3.7242,-3.7228,-3.7216,-3.7214,-3.7185,-3.7192,-3.7193,-3.7277,-3.7162,-3.7165,-3.7167,-3.7169,-3.7465,-3.747,0,0,0,0,0,0,-3.7339,-3.7331,-3.737,-3.7368,-3.73,-3.7273,-3.7267,-3.7283,-3.7241,-3.7229,-3.7218,-3.7207,-3.7188,-3.7189,-3.7191,-3.734,-3.7166,-3.7169,-3.7171,-3.7459,-3.7466,-3.7472,0,0,0,0,0,0,-3.7338,-3.7344,-3.7372,-3.7347,-3.7347,-3.728,-3.73,-3.7285,-3.7291,-3.7233,-3.722,-3.7238,-3.7184,-3.7186,-3.7259,-3.7336,-3.7171,-3.7174,-3.7452,-3.7461,-3.7469,-3.7639,0,0,0,0,0,0,-3.7337,-3.7344,-3.7392,-3.7349,-3.7349,-3.744,-3.7305,-3.7288,-3.7297,-3.7282,-3.7248,-3.7238,-3.718,-3.7254,-3.7262,-3.7338,-3.7177,-3.7445,-3.7456,-3.7466,-3.7626,-3.7652,-3.7675,0,0,0,0,0,-3.7336,-3.7443,-3.7396,-3.7401,-3.7408,-3.7445,-3.7445,-3.7376,-3.7304,-3.7352,-3.7315,-3.7239,-3.7326,-3.7263,-3.7271,-3.7349,-3.744,-3.7453,-3.7465,-3.7615,-3.7647,-3.7674,0,0,0,0,0,0,-3.7499,-3.7436,-3.7383,-3.7479,-3.7468,-3.7419,-3.7477,-3.7412,-3.7422,-3.7407,-3.7321,-3.7315,-3.7401,-3.7382,-3.7312,-3.7472,-3.737,-3.7385,-3.7482,-3.7511,-3.7535,-3.7538,-3.718,0,0,0,0,0,-3.7546,-3.7581,-3.7524,-3.7614,-3.7611,-3.7546,-3.7559,-3.7506,-3.7492,-3.7488,-3.7455,-3.7446,-3.7471,-3.749,-3.751,-3.7622,-3.7613,-3.768,-3.7704,-3.7724,-3.7739,-3.7797,-3.7826,-3.7514,-3.7514,-3.7514,0,0,-3.7645,-3.7614,-3.7641,-3.7646,-3.7632,-3.767,-3.7543,-3.7589,-3.7617,-3.7495,-3.7561,-3.7538,-3.7522,-3.7615,-3.7654,-3.7602,-3.7823,-3.7741,-3.7757,-3.776,-3.7813,-3.7843,-3.7869,-3.7523,-3.7521,-3.752,0,0,-3.7843,-3.7823,-3.7895,-3.7883,-3.7862,-3.7818,-3.7835,-3.7796,-3.7775,-3.784,-3.7749,-3.7781,-3.7827,-3.7819,-3.7821,-3.8015,-3.7945,-3.8024,-3.8151,-3.8209,-3.8233,-3.8255,-3.8325,-3.8351,-3.8038,-3.8039,-3.8039,0,-3.7968,-3.8021,-3.7942,-3.7994,-3.7999,-3.7888,-3.7961,-3.7954,-3.7942,-3.7948,-3.7889,-3.7943,-3.7924,-3.8014,-3.8061,-3.8066,-3.8085,-3.8028,-3.8236,-3.8256,-3.8275,-3.8341,-3.8367,-3.8048,-3.8047,-3.8046,-3.8045,0,-3.8176,-3.8214,-3.8275,-3.8264,-3.8276,-3.8339,-3.827,-3.8292,-3.8238,-3.82,-3.8268,-3.8241,-3.8254,-3.8271,-3.8219,-3.8354,-3.8322,-3.8251,-3.8147,-3.8316,-3.8376,-3.8401,-3.8062,-3.8059,-3.8056,-3.8054,0,0,-3.8478,-3.842,-3.8445,-3.8438,-3.8406,-3.8435,-3.8492,-3.8503,-3.8524,-3.8519,-3.8566,-3.8606,-3.854,-3.8542,-3.8488,-3.8539,-3.8695,-3.8461,-3.8459,-3.8506,-3.8842,-3.8896,-3.8927,-3.8648,-3.8652,-3.8656,-3.8843,0,-3.8667,-3.8761,-3.8691,-3.8798,-3.8832,-3.8727,-3.8777,-3.8764,-3.873,-3.8755,-3.8717,-3.8747,-3.8657,-3.8658,-3.8703,-3.8667,-3.8761,-3.8652,-3.8692,-3.8695,-3.87,-3.8958,-3.9015,-3.9194,-3.8866,-3.887,-3.8873,0,-3.8901,-3.8904,-3.9014,-3.8974,-3.8986,-3.9032,-3.9036,-3.9061,-3.9044,-3.9015,-3.9018,-3.895,-3.9005,-3.8902,-3.8977,-3.8904,-3.8917,-3.8901,-3.8906,-3.8908,-3.8795,-3.8968,-3.9249,-3.9276,-3.8909,-3.8907,-3.8904,0,-3.9111,-3.9143,-3.9212,-3.921,-3.9165,-3.92,-3.9183,-3.916,-3.9171,-3.9175,-3.9181,-3.9192,-3.9198,-3.9209,-3.9147,-3.9078,-3.923,-3.9122,-3.9209,-3.9211,-3.9247,-3.9246,-3.9535,-3.9254,-3.9254,-3.9253,-3.9253,0,-3.933,-3.9401,-3.9305,-3.9349,-3.9426,-3.9345,-3.9424,-3.9396,-3.9376,-3.9413,-3.9323,-3.9359,-3.9274,-3.9303,-3.9255,-3.9324,-3.9328,-3.9308,-3.9294,-3.9316,-3.9319,-3.9324,-3.931,-3.926,-3.9259,-3.9258,-3.9256,0,-3.9578,-3.9516,-3.9585,-3.9536,-3.9525,-3.9585,-3.9543,-3.9581,-3.954,-3.9588,-3.9595,-3.9532,-3.956,-3.9498,-3.9519,-3.9486,-3.9586,-3.9552,-3.9591,-3.9581,-3.9672,-3.9665,-3.9976,-4.0012,-3.9708,-3.9711,-3.9713,0,-3.9722,-3.9774,-3.973,-3.9747,-3.9735,-3.9764,-3.9773,-3.9696,-3.971,-3.9693,-3.9734,-3.9755,-3.9767,-3.9818,-3.9775,-3.979,-3.9757,-3.9864,-3.9759,-3.9779,-3.9759,-3.9757,-3.9762,-3.9887,-3.9891,-3.9894,-3.9896,0,-3.9985,-3.9951,-3.9968,-3.9974,-3.9988,-3.999,-3.9985,-4.0005,-3.9922,-3.9943,-3.9969,-3.9979,-3.9999,-4.0021,-4.0026,-4.0009,-3.9941,-3.9929,-3.995,-3.9974,-3.9995,-3.9985,-3.9651,-3.9923,-3.992,-3.9918,-3.9917,-3.9916,-4.0186,-4.0227,-4.0202,-4.0223,-4.0211,-4.0208,-4.0242,-4.0204,-4.0225,-4.0233,-4.0186,-4.0224,-4.0205,-4.0204,-4.0196,-4.0225,-4.0176,-4.0207,-4.0215,-4.0224,-4.0239,-3.9989,-4.0225,-4.0225,-4.0224,-4.0223,-4.0222,0,-4.0444,-4.0422,-4.0442,-4.0438,-4.0455,-4.0385,-4.0376,-4.0396,-4.0429,-4.0417,-4.043,-4.0461,-4.0482,-4.044,-4.0454,-4.0485,-4.0454,-4.0492,-4.0489,-4.0487,-4.0281,-4.0261,-4.0517,-4.0517,-4.0517,-4.0517,-4.0517,-4.0517,-4.0581,-4.0646,-4.061,-4.0669,-4.0647,-4.0681,-4.0682,-4.068,-4.0669,-4.0707,-4.0723,-4.0694,-4.067,-4.0682,-4.0698,-4.0685,-4.0695,-4.0745,-4.0722,-4.053,-4.0501,-4.0474,-4.0455,-4.0748,-4.0748,-4.0925,-4.0926,-4.0928]},{"header":{"parameterUnit":"m.s-1","parameterCategory":1,"la1":30.2991,"la2":30.254,"lo1":-89.0895,"lo2":-89.0444,"dy":0.0017,"dx":0.0017,"nx":28,"ny":28,"refTime":"2025-12-04T09:00:00:Z","depth":0,"parameterNumber":3,"parameterNumberName":"V-component_of_WINDS"},"data":[0,0,0,0,0,0,0,0,0,0,0,0,0,0,0,0,0,0,0,0,0,0,0,0,0,0,0,0,0,0,0,0,0,0,0,0,0,0,0,0,0,0,0,0,0,0,0,0,0,0,0,0,0,0,0,0,0,0,-2.1068,-2.1068,0,-2.1047,-2.1046,-2.1046,-2.1022,-2.1022,-2.1022,-2.1021,-2.0999,-2.0999,-2.0998,0,0,0,0,0,0,0,0,0,0,0,0,0,-2.1089,-2.1089,-2.1069,-2.1068,-2.1068,-2.1047,-2.1046,-2.1046,-2.1022,-2.1022,-2.1022,-2.1021,-2.0999,-2.0999,-2.0998,0,0,0,0,0,0,0,0,0,0,0,0,0,-2.1075,-2.1089,-2.1069,-2.1054,-2.1052,-2.1047,-2.1046,-2.1046,-2.1023,-2.1022,-2.1021,-2.1021,-2.0999,-2.0999,-2.0998,-2.1006,0,0,-2.0997,-2.0997,0,0,0,0,0,0,0,0,-2.1076,-2.1074,-2.1056,-2.1055,-2.1053,-2.1037,-2.1045,-2.1033,-2.1023,-2.1034,-2.1021,-2.1021,-2.1012,-2.101,-2.1007,-2.1005,-2.1004,-2.0997,-2.0997,-2.0997,-2.0996,0,0,0,0,0,0,0,-2.1077,-2.1075,-2.106,-2.1056,-2.1054,-2.1048,-2.1045,-2.1043,-2.1026,-2.1033,-2.1031,-2.1029,-2.1011,-2.1008,-2.1007,-2.1004,-2.0997,-2.0997,-2.0996,-2.0996,-2.1005,-2.1005,0,0,0,0,0,0,-2.108,-2.1076,-2.1061,-2.1059,-2.1063,-2.1048,-2.1045,-2.1042,-2.1026,-2.1023,-2.1029,-2.1028,-2.1009,-2.1007,-2.1006,-2.1012,-2.0997,-2.0996,-2.0996,-2.1004,-2.1005,-2.1005,0,0,0,0,0,0,-2.1081,-2.1079,-2.1061,-2.1067,-2.1064,-2.1048,-2.1045,-2.1042,-2.1039,-2.1023,-2.102,-2.1029,-2.1008,-2.1006,-2.1006,-2.1011,-2.0996,-2.0996,-2.1004,-2.1004,-2.1005,-2.1027,0,0,0,0,0,0,-2.1081,-2.1079,-2.1082,-2.1067,-2.1064,-2.1062,-2.1046,-2.1042,-2.1038,-2.1036,-2.1022,-2.102,-2.1008,-2.1007,-2.1005,-2.1011,-2.0995,-2.1003,-2.1004,-2.1005,-2.1025,-2.1028,-2.103,0,0,0,0,0,-2.1082,-2.109,-2.1083,-2.1081,-2.1068,-2.1062,-2.1061,-2.1047,-2.1039,-2.1042,-2.1031,-2.102,-2.1011,-2.1007,-2.1005,-2.101,-2.1003,-2.1004,-2.1005,-2.1024,-2.1028,-2.103,0,0,0,0,0,0,-2.1106,-2.1087,-2.1079,-2.1082,-2.1074,-2.1058,-2.1061,-2.1051,-2.1045,-2.1043,-2.1026,-2.1024,-2.1024,-2.1017,-2.1013,-2.1016,-2.1005,-2.1006,-2.1021,-2.1024,-2.1026,-2.1027,-2.0995,0,0,0,0,0,-2.1111,-2.1109,-2.1093,-2.1097,-2.1093,-2.1078,-2.1075,-2.1065,-2.1056,-2.1053,-2.1042,-2.1034,-2.1029,-2.1026,-2.1021,-2.1024,-2.102,-2.1027,-2.103,-2.1032,-2.1032,-2.1033,-2.1035,-2.1009,-2.1009,-2.1009,0,0,-2.1123,-2.1112,-2.1112,-2.1101,-2.1094,-2.1091,-2.1075,-2.1073,-2.1071,-2.1052,-2.1051,-2.1043,-2.1032,-2.1033,-2.1033,-2.1027,-2.1039,-2.1033,-2.1035,-2.1034,-2.1034,-2.1036,-2.1039,-2.101,-2.1009,-2.1009,0,0,-2.1142,-2.1134,-2.1136,-2.1128,-2.1117,-2.1107,-2.1107,-2.1093,-2.1087,-2.1085,-2.1071,-2.1068,-2.106,-2.1053,-2.1048,-2.1063,-2.1052,-2.1062,-2.1075,-2.1075,-2.1077,-2.1079,-2.1083,-2.1085,-2.1063,-2.1063,-2.1063,0,-2.1157,-2.1152,-2.1138,-2.1137,-2.1132,-2.1115,-2.1116,-2.111,-2.1097,-2.1094,-2.1088,-2.1077,-2.1069,-2.1067,-2.1071,-2.1068,-2.1068,-2.1063,-2.1078,-2.1079,-2.1081,-2.1085,-2.1086,-2.1064,-2.1064,-2.1064,-2.1064,0,-2.1171,-2.1168,-2.1171,-2.1159,-2.1155,-2.1155,-2.114,-2.1138,-2.1128,-2.1118,-2.1116,-2.1105,-2.1097,-2.1096,-2.1087,-2.1093,-2.109,-2.1081,-2.107,-2.1085,-2.1088,-2.1089,-2.1066,-2.1065,-2.1065,-2.1065,0,0,-2.1204,-2.1184,-2.1185,-2.1179,-2.1165,-2.1162,-2.1161,-2.1153,-2.115,-2.1143,-2.114,-2.1134,-2.1125,-2.112,-2.111,-2.111,-2.1122,-2.1101,-2.1101,-2.1104,-2.1126,-2.1132,-2.1134,-2.1115,-2.1115,-2.1115,-2.1127,0,-2.122,-2.1217,-2.1203,-2.1204,-2.12,-2.1184,-2.1183,-2.1174,-2.1165,-2.116,-2.115,-2.1145,-2.1135,-2.1131,-2.1131,-2.112,-2.1126,-2.1119,-2.1112,-2.1112,-2.1114,-2.1136,-2.1143,-2.1154,-2.1128,-2.1128,-2.1128,0,-2.1237,-2.123,-2.123,-2.1215,-2.1213,-2.1213,-2.1203,-2.12,-2.1189,-2.1182,-2.1176,-2.1164,-2.1162,-2.1152,-2.1147,-2.1143,-2.1139,-2.1133,-2.1133,-2.1131,-2.112,-2.1134,-2.1157,-2.1159,-2.113,-2.113,-2.113,0,-2.126,-2.125,-2.1249,-2.1244,-2.1227,-2.1227,-2.122,-2.1208,-2.1204,-2.1196,-2.1193,-2.1185,-2.118,-2.1174,-2.116,-2.1154,-2.1157,-2.1146,-2.115,-2.115,-2.1151,-2.1151,-2.1173,-2.115,-2.115,-2.115,-2.115,0,-2.1278,-2.1278,-2.1258,-2.1257,-2.1257,-2.1242,-2.1242,-2.1233,-2.1223,-2.122,-2.1206,-2.1203,-2.1185,-2.118,-2.1169,-2.1167,-2.1165,-2.1159,-2.1156,-2.1159,-2.116,-2.1156,-2.1154,-2.115,-2.115,-2.115,-2.115,0,-2.1302,-2.1289,-2.1286,-2.127,-2.1266,-2.1267,-2.1253,-2.1251,-2.1241,-2.1237,-2.1235,-2.1219,-2.1212,-2.1198,-2.1188,-2.118,-2.1179,-2.1175,-2.1183,-2.1181,-2.1186,-2.1185,-2.1206,-2.1207,-2.1184,-2.1184,-2.1185,0,-2.1314,-2.1314,-2.1298,-2.1295,-2.1288,-2.1283,-2.1278,-2.1263,-2.1259,-2.1246,-2.1245,-2.1238,-2.123,-2.122,-2.1207,-2.1199,-2.1193,-2.1201,-2.1192,-2.1195,-2.1192,-2.1192,-2.1191,-2.1203,-2.1203,-2.1203,-2.1204,0,-2.1336,-2.133,-2.1323,-2.1315,-2.1309,-2.1302,-2.1293,-2.1291,-2.1274,-2.127,-2.1262,-2.1257,-2.1246,-2.1237,-2.1227,-2.1219,-2.1208,-2.1207,-2.1207,-2.121,-2.1214,-2.1211,-2.1187,-2.1206,-2.1206,-2.1206,-2.1205,-2.1205,-2.1354,-2.1353,-2.1341,-2.1334,-2.1326,-2.1319,-2.1316,-2.1305,-2.1299,-2.1289,-2.128,-2.1273,-2.1262,-2.1246,-2.1239,-2.1233,-2.1228,-2.1229,-2.1229,-2.1229,-2.123,-2.1216,-2.1231,-2.1231,-2.1231,-2.1231,-2.1231,0,-2.1374,-2.1366,-2.136,-2.1348,-2.1343,-2.1333,-2.1323,-2.1319,-2.1313,-2.1304,-2.1297,-2.1288,-2.128,-2.1266,-2.1257,-2.1254,-2.1249,-2.1252,-2.1252,-2.125,-2.1236,-2.1236,-2.1257,-2.1257,-2.1257,-2.1257,-2.1257,-2.1257,-2.1384,-2.1381,-2.1373,-2.1366,-2.1357,-2.135,-2.1345,-2.1338,-2.133,-2.132,-2.1314,-2.1305,-2.1293,-2.1283,-2.1275,-2.1271,-2.1267,-2.1272,-2.1267,-2.1254,-2.1251,-2.1249,-2.1249,-2.1272,-2.1272,-2.1281,-2.1281,-2.1281]}]]